Location: Caucaguita
(10.3578°N, 66.8025°W)
Time: 01:59:02
(UTC+00:00)

Ariane H10+ - Pass Details

Date: 18 November 2025
Orbit: 425 x 34937 km, 7.2° (Epoch: 08 December)

Event Time Altitude Azimuth Distance (km) Brightness Sun altitude
Rises 22:42:27 0° 270° (W) 6,785 9.4 -10.4°
Reaches altitude 10° 22:49:11 10° 265° (W) 3,632 7.9 -12.0°
Maximum altitude 22:55:30 42° 194° (SSW) 857 3.5 -13.5°
Enters shadow 22:57:48 14° 122° (ESE) 1,377 4.0 -14.0°
